User: anonymous   Login
Location: Unspecified
(0.0000°N, 0.0000°E)
Time: 21:47:45
(UTC+00:00)
Language:

Orbcomm-X - Orbit

View from above orbital plane
View from above orbital plane
View from above satellite
View from above satellite

Ground track
Ground track

The orbit data is extracted from the following two-line orbital elements,

1 21577U 91050D   18114.91891770 -.00000000 +00000-0 +14781-4 0  9990
2 21577 098.7628 141.7506 0006983 139.9122 220.2581 14.39413045405262
Epoch (UTC): 24 April 2018 22:03:14
Eccentricity: 0.0006983
inclination: 98.7628°
perigee height: 755 km
apogee height: 765 km
right ascension of ascending node: 141.7506°
argument of perigee: 139.9122°
revolutions per day: 14.39413045
mean anomaly at epoch: 220.2581°
orbit number at epoch: 40526

The dashed part of the orbit path shows where the satellite is in the earth's shadow,  

DLR